Погода в Тиме

Россия / Орловская область     52°10′53″N   37°19′29″E
темп.,
°C
ветер,
м/с
пор.,
м/с
влажн.,
%
обл.,
%
осадки,
мм/ч
давл.,
гПа
погр.,
м
23 сентября, чт
чт2300:00+7ю2491100 0.0 1013286
03:00+7ююз2492100 0.0 1013287
06:00+7ююз1291100 0.1 1013112
09:00+8юз2388100 0.3 1013260
12:00+8ююв2282100 0.1 1013309
15:00+9ююв3476100 0.3 1012627
18:00+8ююз3682100 0.3 1012276
21:00+8ююз3585100 0.4 1012208
24 сентября, пт
пт2400:00+7юз378987 0.1 1011264
03:00+7юз258890 0.3 1010277
06:00+6ююз3891100 0.0 1009423
09:00+8ю61077100 0.1 1008852
12:00+10ю71162100 0.0 10061536
15:00+10ююз81265100 0.1 10041400
18:00+8ю81289100 1.6 10041179
21:00+8ю71392100 3.3 1004802
25 сентября, сб
сб2500:00+8ю5994100 0.9 1004672
03:00+8ююв3696100 0.9 1004339
06:00+8ююв249799 0.0 1005263
09:00+9ююв239094 0.1 1006272
12:00+11ю227593 0.2 1007654
15:00+13зюз226799 0.5 1008915
18:00+11зюз2276100 0.2 100934
21:00+8з36895 0.4 1011120
26 сентября, вс
вс2600:00+8зюз3793100 0.0 1011256
03:00+9юз3795100 0.4 1010340
06:00+8юз3896100 1.8 1009478
09:00+11зсз61088100 2.0 1008789
12:00+12сз9117182 0.4 10091199
15:00+11ссз81373100 1.0 10111511
18:00+9ссз7138172 0.3 1013947
21:00+9ссз61285100 0.4 1014751
27 сентября, пн
пн2700:00+8ссз6128884 0.1 1016690
03:00+8ссз51090100 0.1 1017620
06:00+8ссз51091100 0.1 1018497
09:00+9с698693 0.1 1020534
12:00+11с577787 0.1 1021749
15:00+12с5764100 0.3 10221445
18:00+10с5978100 0.1 1023586
21:00+9ссв4984100 0.1 1024537